FW8702 Weather Reports


Display with metric or nautical units.
time (UTC)temp
F
wind
direction
speed
MPH
gust
MPH
rain 1hr
in
rain 24hr
in
rain mn
in
humidity
%
barometer
mb
20210923093104 67 111 1.0 3.0 0.00 0.00 0.00 74 1024.8
20210923091655 66 111 1.0 3.0 0.00 0.00 0.00 77 1024.9
20210923090141 65 111 1.0 2.0 0.00 0.00 0.00 79 1025.0
20210923084511 65 111 1.0 3.0 0.00 0.00 0.00 82 1024.9
20210923083110 64 111 0.0 2.0 0.00 0.00 0.00 84 1024.9
20210923081502 64 111 0.0 2.0 0.00 0.00 0.00 85 1024.8
20210923080115 63 111 1.0 3.0 0.00 0.00 0.00 86 1024.8
20210923074631 63 111 1.0 3.0 0.00 0.00 0.00 86 1024.9
20210923073150 62 111 1.0 3.0 0.00 0.00 0.00 88 1024.9
20210923071628 62 111 1.0 3.0 0.00 0.00 0.00 90 1024.8
20210923070021 62 111 0.0 3.0 0.00 0.00 0.00 90 1024.9
20210923064608 61 111 0.0 2.0 0.00 0.00 0.00 91 1024.8
20210923063223 61 111 0.0 1.0 0.00 0.00 0.00 91 1024.7
20210923061606 61 111 0.0 3.0 0.00 0.00 0.00 91 1024.7
20210923060002 60 111 0.0 2.0 0.00 0.00 0.00 91 1024.5
20210923054720 60 111 0.0 1.0 0.00 0.00 0.00 91 1024.5
20210923053201 60 111 0.0 1.0 0.00 0.00 0.00 91 1024.4
20210923051641 60 111 0.0 2.0 0.00 0.00 0.00 91 1024.3
20210923050109 60 111 1.0 2.0 0.00 0.00 0.00 90 1024.2
20210923044501 60 111 0.0 1.0 0.00 0.00 0.00 91 1024.1
20210923043213 60 111 0.0 1.0 0.00 0.00 0.00 91 1024.1
20210923041647 60 111 0.0 1.0 0.00 0.00 0.00 91 1024.2
20210923040145 60 111 0.0 2.0 0.00 0.00 0.00 91 1024.3
20210923034719 60 111 0.0 1.0 0.00 0.00 0.00 90 1024.3
20210923033149 60 111 0.0 3.0 0.00 0.00 0.00 90 1024.4
20210923031537 60 112 2.0 4.0 0.00 0.00 0.00 91 1024.4
20210923030132 60 118 0.0 1.0 0.00 0.00 0.00 92 1024.5
20210923024615 59 118 0.0 2.0 0.00 0.00 0.00 91 1024.5
20210923023131 59 118 0.0 1.0 0.00 0.00 0.00 92 1024.5
20210923021601 59 118 0.0 2.0 0.00 0.00 0.00 92 1024.4
20210923020005 59 118 0.0 0.0 0.00 0.00 0.00 91 1024.5
20210923014637 60 118 0.0 0.0 0.00 0.00 0.00 91 1024.5
20210923013136 60 118 0.0 2.0 0.00 0.00 0.00 91 1024.5
20210923011730 60 118 0.0 0.0 0.00 0.00 0.00 91 1024.6
20210923010116 60 118 0.0 2.0 0.00 0.00 0.00 91 1024.7
20210923004502 60 118 0.0 0.0 0.00 0.00 0.00 91 1024.8
20210923003211 60 118 0.0 0.0 0.00 0.00 0.00 91 1024.8
20210923001606 60 118 0.0 0.0 0.00 0.00 0.00 91 1024.8
20210922234718 60 118 0.0 0.0 0.00 0.00 0.00 91 1024.6
20210922233010 60 118 0.0 1.0 0.00 0.00 0.00 91 1024.7
20210922231629 60 118 0.0 0.0 0.00 0.00 0.00 91 1024.6
20210922230111 60 118 0.0 1.0 0.00 0.00 0.00 91 1024.4
20210922224625 60 118 1.0 2.0 0.00 0.00 0.00 91 1024.2
20210922223147 60 118 0.0 1.0 0.00 0.00 0.00 90 1024.2
20210922221606 60 118 0.0 4.0 0.00 0.00 0.00 90 1024.1
20210922220136 59 121 1.0 3.0 0.00 0.00 0.00 90 1024.0
20210922214625 60 128 0.0 0.0 0.00 0.00 0.00 89 1023.8
20210922213140 60 128 0.0 1.0 0.00 0.00 0.00 89 1023.8
20210922211630 60 128 1.0 3.0 0.00 0.00 0.00 89 1023.7
20210922210214 60 129 0.0 2.0 0.00 0.00 0.00 89 1023.5
20210922204612 60 129 0.0 6.0 0.00 0.00 0.00 89 1023.4
20210922203014 59 165 0.0 1.0 0.00 0.00 0.00 90 1023.3
20210922201606 60 165 0.0 1.0 0.00 0.00 0.00 89 1023.0
20210922200135 61 165 0.0 1.0 0.00 0.00 0.00 88 1022.9
20210922194706 61 166 0.0 0.0 0.00 0.00 0.00 89 1022.7
20210922193001 61 165 1.0 2.0 0.00 0.00 0.00 88 1022.6
20210922191607 62 165 0.0 0.0 0.00 0.00 0.00 87 1022.4
20210922190131 63 165 0.0 1.0 0.00 0.00 0.00 86 1022.2
20210922184556 64 165 0.0 2.0 0.00 0.00 0.00 86 1022.2
20210922183002 64 165 0.0 2.0 0.00 0.00 0.00 84 1022.1
20210922181624 65 165 1.0 3.0 0.00 0.00 0.00 83 1021.9
20210922180109 66 165 0.0 0.0 0.00 0.00 0.00 83 1021.8
20210922174646 67 165 0.0 0.0 0.00 0.00 0.00 82 1021.7
20210922173214 67 165 0.0 2.0 0.00 0.00 0.00 81 1021.6
20210922171719 68 165 0.0 1.0 0.00 0.00 0.00 80 1021.6
20210922170238 69 165 0.0 1.0 0.00 0.00 0.00 78 1021.5
20210922164742 70 165 0.0 2.0 0.00 0.00 0.00 74 1021.3
20210922163014 71 165 0.0 2.0 0.00 0.00 0.00 71 1021.1
20210922161846 72 165 0.0 2.0 0.00 0.00 0.00 68 1021.0
20210922160124 73 194 0.0 3.0 0.00 0.00 0.00 66 1020.9
20210922154502 73 163 0.0 3.0 0.00 0.00 0.00 64 1020.9
20210922153118 73 194 2.0 5.0 0.00 0.00 0.00 63 1021.0
20210922151509 74 129 0.0 4.0 0.00 0.00 0.00 64 1021.1
20210922150100 73 129 1.0 6.0 0.00 0.00 0.00 64 1021.2
20210922144520 73 213 1.0 5.0 0.00 0.00 0.00 64 1021.3
20210922143114 73 133 3.0 8.0 0.00 0.00 0.00 64 1021.4
20210922141522 73 123 1.0 5.0 0.00 0.00 0.00 63 1021.5
20210922140113 73 134 3.0 5.0 0.00 0.00 0.00 63 1021.6
20210922134510 73 202 2.0 6.0 0.00 0.00 0.00 64 1021.7
20210922133130 74 142 1.0 7.0 0.00 0.00 0.00 64 1021.8
20210922131503 74 192 2.0 7.0 0.00 0.00 0.00 64 1021.9
20210922130132 74 252 1.0 8.0 0.00 0.00 0.00 64 1022.0
20210922124511 74 152 1.0 7.0 0.00 0.00 0.00 64 1022.1
20210922123121 73 135 2.0 7.0 0.00 0.00 0.00 63 1022.3
20210922121504 73 131 2.0 7.0 0.00 0.00 0.00 61 1022.3
20210922120002 72 245 3.0 8.0 0.00 0.00 0.00 66 1022.5
20210922114623 73 192 1.0 8.0 0.00 0.00 0.00 67 1022.5
20210922113003 72 153 2.0 9.0 0.00 0.00 0.00 66 1022.7
20210922111716 71 189 2.0 8.0 0.00 0.00 0.00 69 1022.9
20210922110106 70 223 2.0 6.0 0.00 0.00 0.00 68 1023.1
20210922104620 71 223 3.0 6.0 0.00 0.00 0.00 67 1023.2
20210922103250 70 219 1.0 4.0 0.00 0.00 0.00 72 1023.3
20210922101503 69 264 1.0 4.0 0.00 0.00 0.00 73 1023.5
20210922100123 69 238 2.0 6.0 0.00 0.00 0.00 72 1023.7
20210922094502 68 227 1.0 4.0 0.00 0.00 0.00 72 1023.8